Location: Little Italy
(37.8008°N, 122.4108°W)
Time: 21:18:52
(UTC+00:00)

H-2A R/B - Pass Details

Date: 29 October 2020
Orbit: 528 x 652 km, 98.3° (Epoch: 24 November)

Event Time Altitude Azimuth Distance (km) Brightness Sun altitude
Rises 13:34:36 0° 20° (NNE) 2,913 6.2 -12.0°
Reaches altitude 10° 13:36:56 10° 27° (NNE) 1,984 5.4 -11.6°
Maximum altitude 13:41:02 43° 99° (E) 848 3.9 -10.8°
Drops below altitude 10° 13:44:58 10° 171° (S) 1,897 5.3 -10.0°
Sets 13:47:09 0° 178° (S) 2,771 6.1 -9.6°
